Location: Eimen
(51.8766°N, 9.7806°E)
Time: 15:16:52
(UTC+00:00)

NPP - Pass Details

Date: 23 May 2024
Orbit: 826 x 827 km, 98.7° (Epoch: 24 June)

Event Time Altitude Azimuth Distance (km) Brightness Sun altitude
Rises 00:56:34 0° 17° (NNE) 3,381 8.7 -14.3°
Reaches altitude 10° 00:58:59 10° 22° (NNE) 2,443 7.6 -14.2°
Maximum altitude 01:04:20 58° 101° (ESE) 961 4.1 -13.8°
Enters shadow 01:08:42 15° 178° (S) 2,075 5.2 -13.5°
